Location: Olsztyn
(53.7767°N, 20.4765°E)
Time: 16:57:23
(UTC+02:00)

Vanguard 1 - Visible Passes

Search period start: 14 July 2024 00:00
Search period end: 24 July 2024 00:00
Orbit: 650 x 3826 km, 34.3° (Epoch: 13 July)

Date Brightness Start Highest point End Pass type
(mag) Time Alt. Az. Time Alt. Az. Time Alt. Az.
14 Jul 14.0 03:18:47 10° SSE 03:29:42 16° SE 03:39:48 10° ESE visible
15 Jul 13.9 03:34:57 10° S 03:49:01 20° SE 04:01:47 10° ESE visible
17 Jul 14.0 02:01:14 10° SE 02:06:54 11° SE 02:12:31 10° ESE visible
18 Jul 13.9 02:14:52 10° SSE 02:25:57 16° SE 02:36:57 10° ESE visible
19 Jul 13.7 02:31:12 10° S 02:45:06 21° SE 02:58:56 10° E visible
20 Jul 13.7 02:48:35 10° S 03:04:21 25° SE 03:20:03 10° E visible
21 Jul 13.8 00:59:02 10° SE 01:03:16 11° ESE 01:07:36 10° ESE visible
21 Jul 13.6 03:06:38 10° SSW 03:23:41 30° SSE 03:40:42 10° E visible
22 Jul 13.7 01:12:08 10° SSE 01:22:08 15° SE 01:32:47 10° E visible
22 Jul 13.5 03:25:08 10° SSW 03:43:07 34° SSE 04:01:04 10° E visible
23 Jul 13.5 01:30:04 12° SSE 01:41:07 20° SE 01:54:57 10° E visible
23 Jul 13.5 03:43:57 10° SW 04:02:39 37° SSE 04:21:14 10° ESE visible
